Погода в Лионе

Франция     45˚45′35″N   4˚50′12″E
темп.,
°C
ветер,
м/с
пор.,
м/с
влажн.,
%
обл.,
%
осадки,
мм/ч
давл.,
гПа
погр.,
м
5 декабря, сб
сб501:00+3˚ююз1386100 0.0 995160
04:00+2˚ююз127928 0.0 99758
07:00+1˚ююз127914 0.0 99845
10:00+3˚ююв127319 0.0 999167
13:00+6˚ююв236220 0.0 998482
16:00+5˚ююв247452 0.0 997292
19:00+3˚ю128330 0.0 99953
22:00+2˚ю127840 0.0 100050
6 декабря, вс
вс601:00+2˚ю127671 0.0 100091
04:00+1˚ююз118198 0.0 100062
07:00+1˚ююв118499 0.0 100041
10:00+3˚ююв12750 0.0 1000142
13:00+6˚вюв22650 0.0 999381
16:00+6˚с12711 0.0 999159
19:00+4˚ссз259050 3.8 1001381
22:00+3˚ссз1185100 0.1 100156
7 декабря, пн
пн701:00+2˚зюз228599 0.1 100299
04:00+1˚зюз118592 0.0 100263
07:00+1˚зюз118296 0.0 100381
10:00+2˚ю117883 0.0 1003193
13:00+5˚вюв116876 0.0 1002650
16:00+4˚в227380 0.1 1002528
19:00+2˚вюв128274 0.1 1004150
22:00+1˚вюв118440 0.0 100435
8 декабря, вт
вт801:00+1˚всв118470 0.0 1003109
04:00+1˚юв2488100 0.1 1000295
07:00+1˚юв3696100 1.1 1000337
10:00в3497100 1.6 1001229
13:00+1˚всв2397100 2.1 1001155
16:00+1˚ссз2397100 0.6 1002134
19:00+1˚сз2497100 2.2 1005228
22:00+1˚сз2597100 1.4 1007309
9 декабря, ср
ср901:00+1˚сз3797100 2.0 1008427
04:00сз4993100 0.8 1009534
07:00сз41088100 1.0 1010573
10:00+1˚сз498290 0.0 1011696
13:00+3˚ссз477778 0.1 1010993
16:00+2˚ссз367891 0.1 1010754
19:00зсз238266 0.1 1012110
22:00−1˚з22800 0.0 101271